[[[{"header":{"parameterUnit":"kt","parameterCategory":2,"dx":1,"dy":1,"la1":30.253999710083008,"la2":30.299108505249023,"lo1":-89.0895004272461,"lo2":-89.04439544677734,"nx":28,"ny":28,"refTime":"2022-09-26T21:00:00:Z","depth":0,"parameterNumber":1,"parameterNumberName":"U-component_of_WINDS"},"data":[-4.8945,-4.9147,-4.9154,-4.9386,-4.9432,-4.9593,-4.9653,-4.9731,-4.9795,-4.9987,-5.0099,-5.0127,-5.0195,-5.0331,-5.0454,-5.0464,-5.0517,-5.0582,-5.0584,-5.0283,-5.0242,-5.0203,-5.0157,-5.0592,-5.0593,-5.0896,-5.0898,-5.0901,-4.8722,-4.8769,-4.8894,-4.902,-4.9127,-4.9068,-4.9164,-4.9258,-4.9404,-4.9484,-4.9595,-4.9766,-4.9902,-4.9948,-5.0081,-5.0176,-5.0158,-5.0212,-5.0208,-5.022,-4.9897,-4.9848,-5.0224,-5.0224,-5.0224,-5.0224,-5.0224,-5.0224,-4.8318,-4.8438,-4.8519,-4.8655,-4.872,-4.8804,-4.8921,-4.8952,-4.9075,-4.9214,-4.9198,-4.9364,-4.9447,-4.9611,-4.9668,-4.9798,-4.974,-4.9802,-4.9819,-4.9836,-4.9855,-4.9422,-4.982,-4.9819,-4.9818,-4.9817,-4.9816,0,-4.8026,-4.8023,-4.8144,-4.8267,-4.8367,-4.8463,-4.8553,-4.8624,-4.8623,-4.8725,-4.8874,-4.8961,-4.9133,-4.9275,-4.94,-4.9448,-4.9401,-4.9396,-4.944,-4.9453,-4.9448,-4.9457,-4.8934,-4.9386,-4.9382,-4.938,-4.9378,-4.9376,-4.7622,-4.7761,-4.7849,-4.7933,-4.7984,-4.8119,-4.8202,-4.819,-4.8279,-4.8388,-4.8495,-4.8635,-4.8748,-4.8986,-4.9024,-4.9153,-4.9133,-4.9305,-4.9153,-4.9157,-4.9141,-4.9135,-4.915,-4.9337,-4.9342,-4.9346,-4.9349,0,-4.7395,-4.7406,-4.7624,-4.7698,-4.772,-4.7867,-4.793,-4.805,-4.8068,-4.8236,-4.8275,-4.8305,-4.8452,-4.8462,-4.8632,-4.8633,-4.8877,-4.8851,-4.8848,-4.8845,-4.9003,-4.899,-4.9507,-4.9576,-4.9119,-4.9124,-4.9127,0,-4.7058,-4.7241,-4.7248,-4.7374,-4.7576,-4.756,-4.7761,-4.7797,-4.7868,-4.8,-4.7946,-4.8071,-4.8064,-4.8192,-4.8194,-4.8394,-4.8425,-4.844,-4.8439,-4.8448,-4.8447,-4.85,-4.8481,-4.8427,-4.8425,-4.8422,-4.842,0,-4.6706,-4.6923,-4.7126,-4.7178,-4.7276,-4.7372,-4.7418,-4.7497,-4.7579,-4.7686,-4.7739,-4.7865,-4.7936,-4.8035,-4.8037,-4.7934,-4.8281,-4.814,-4.8297,-4.8297,-4.8378,-4.8374,-4.8824,-4.8417,-4.8416,-4.8415,-4.8414,0,-4.6438,-4.6545,-4.6837,-4.6918,-4.6976,-4.711,-4.7233,-4.735,-4.7438,-4.7448,-4.7532,-4.75,-4.7673,-4.7532,-4.7773,-4.7638,-4.771,-4.7739,-4.775,-4.7772,-4.7616,-4.7874,-4.8297,-4.8344,-4.7784,-4.7779,-4.7774,0,-4.6033,-4.6331,-4.632,-4.6598,-4.6738,-4.6668,-4.6817,-4.6896,-4.6922,-4.7044,-4.7072,-4.7213,-4.7109,-4.7156,-4.7272,-4.7309,-4.7483,-4.7284,-4.7467,-4.7474,-4.745,-4.7838,-4.7901,-4.8202,-4.7707,-4.7714,-4.7719,0,-4.5722,-4.5839,-4.589,-4.5949,-4.6051,-4.6168,-4.6337,-4.6473,-4.6555,-4.665,-4.6795,-4.699,-4.6922,-4.6999,-4.6986,-4.7108,-4.7364,-4.7019,-4.7021,-4.7084,-4.7673,-4.7732,-4.7782,-4.7329,-4.7337,-4.7344,-4.7666,0,-4.5321,-4.5471,-4.5606,-4.5738,-4.5829,-4.6004,-4.6015,-4.6109,-4.6086,-4.611,-4.6321,-4.6391,-4.6532,-4.659,-4.6571,-4.6844,-4.6801,-4.6727,-4.6596,-4.6848,-4.6955,-4.6998,-4.6435,-4.6431,-4.6428,-4.6426,0,0,-4.4933,-4.5149,-4.5132,-4.5297,-4.5374,-4.5301,-4.5487,-4.5552,-4.5689,-4.5744,-4.5669,-4.5958,-4.6019,-4.6276,-4.6355,-4.641,-4.6462,-4.6374,-4.6727,-4.676,-4.6791,-4.6905,-4.695,-4.642,-4.6419,-4.6417,-4.6416,0,-4.479,-4.485,-4.5033,-4.51,-4.5199,-4.5214,-4.5258,-4.5344,-4.5368,-4.5574,-4.5514,-4.5642,-4.5874,-4.5948,-4.6016,-4.6341,-4.6292,-4.6382,-4.6555,-4.6694,-4.6732,-4.6765,-4.6885,-4.6927,-4.6409,-4.6409,-4.6409,0,-4.4489,-4.4551,-4.464,-4.4808,-4.4873,-4.5019,-4.4881,-4.5041,-4.5149,-4.5065,-4.5272,-4.5313,-4.5412,-4.5651,-4.5759,-4.5695,-4.6136,-4.5999,-4.6019,-4.6033,-4.6169,-4.6214,-4.6255,-4.5723,-4.5721,-4.5719,0,0,-4.4365,-4.4503,-4.4568,-4.4779,-4.4823,-4.485,-4.4928,-4.4915,-4.5004,-4.5041,-4.5094,-4.5184,-4.5318,-4.5407,-4.5534,-4.5795,-4.5816,-4.5914,-4.5946,-4.5972,-4.6001,-4.6143,-4.6188,-4.571,-4.5709,-4.5709,0,0,-4.4306,-4.4389,-4.4351,-4.4596,-4.4682,-4.4762,-4.4891,-4.4847,-4.4962,-4.4944,-4.4932,-4.4956,-4.5179,-4.5223,-4.5098,-4.5489,-4.5358,-4.5388,-4.5453,-4.5494,-4.5526,-4.5513,-4.4971,0,0,0,0,0,-4.4167,-4.4378,-4.4343,-4.4385,-4.46,-4.4781,-4.4808,-4.4802,-4.4709,-4.4811,-4.4848,-4.4789,-4.5153,-4.5042,-4.5085,-4.5227,-4.5591,-4.5612,-4.5632,-4.5777,-4.5819,-4.5855,0,0,0,0,0,0,-4.4184,-4.4236,-4.4337,-4.4425,-4.4473,-4.4773,-4.4614,-4.4618,-4.4698,-4.4683,-4.4783,-4.4792,-4.4791,-4.5019,-4.5059,-4.5193,-4.4958,-4.5599,-4.5617,-4.5633,-4.5791,-4.5826,-4.5856,0,0,0,0,0,-4.4197,-4.4239,-4.4584,-4.4422,-4.4464,-4.4506,-4.4606,-4.4608,-4.467,-4.4729,-4.4735,-4.4658,-4.4795,-4.4828,-4.5042,-4.5175,-4.493,-4.4945,-4.561,-4.5625,-4.5637,-4.5808,0,0,0,0,0,0,-4.4207,-4.4243,-4.4593,-4.4605,-4.4342,-4.4489,-4.4512,-4.46,-4.471,-4.4719,-4.4602,-4.4589,-4.4801,-4.4825,-4.4851,-4.517,-4.4908,-4.4923,-4.4932,-4.5621,-4.5632,-4.5642,0,0,0,0,0,0,-4.422,-4.4254,-4.4599,-4.4498,-4.4499,-4.4474,-4.4494,-4.4675,-4.4712,-4.4577,-4.457,-4.4595,-4.4762,-4.4824,-4.4844,-4.5127,-4.4891,-4.4905,-4.4915,-4.4922,-4.563,-4.5639,0,0,0,0,0,0,-4.4235,-4.4264,-4.4495,-4.4496,-4.4496,-4.4637,-4.4634,-4.4855,-4.4624,-4.4573,-4.4603,-4.4594,-4.4764,-4.4783,-4.4839,-4.5115,-4.5124,-4.4891,-4.4901,-4.4908,-4.4913,0,0,0,0,0,0,0,-4.4246,-4.4052,-4.4518,-4.4494,-4.4494,-4.4721,-4.4725,-4.4728,-4.4622,-4.4613,-4.4605,-4.4598,-4.4809,-4.4824,-4.484,-4.5105,0,0,-4.489,-4.4897,0,0,0,0,0,0,0,0,-4.404,-4.4049,-4.4518,-4.4521,-4.4524,-4.4722,-4.4725,-4.4727,-4.462,-4.4614,-4.4607,-4.4601,-4.4813,-4.4826,-4.4839,0,0,0,0,0,0,0,0,0,0,0,0,0,0,0,-4.4519,-4.4521,0,-4.4722,-4.4725,-4.4727,-4.4619,-4.4614,-4.4608,-4.4603,-4.4817,-4.4827,-4.4838,0,0,0,0,0,0,0,0,0,0,0,0,0,0,0,0,0,0,0,0,0,0,0,0,0,0,0,0,0,0,0,0,0,0,0,0,0,0,0,0,0,0,0,0,0,0,0,0,0,0,0,0,0,0,0,0,0,0,0,0,0,0,0,0,0,0,0,0,0]}],[{"header":{"parameterUnit":"kt","parameterCategory":2,"dx":1,"dy":1,"la1":30.253999710083008,"la2":30.299108505249023,"lo1":-89.0895004272461,"lo2":-89.04439544677734,"nx":28,"ny":28,"refTime":"2022-09-26T21:00:00:Z","depth":0,"parameterNumber":2,"parameterNumberName":"V-component_of_WINDS"},"data":[-12.9129,-12.9361,-12.9349,-12.9606,-12.9638,-12.981,-12.9867,-12.9939,-12.9991,-13.0191,-13.0302,-13.031,-13.0353,-13.0479,-13.0596,-13.0595,-13.0646,-13.0738,-13.0721,-13.0327,-13.0271,-13.0218,-13.0164,-13.0749,-13.075,-13.1132,-13.1135,-13.1138,-12.8839,-12.8875,-12.9008,-12.9129,-12.9241,-12.9146,-12.9231,-12.9331,-12.9486,-12.9552,-12.9661,-12.9834,-12.9967,-12.9979,-13.0103,-13.0206,-13.0167,-13.0241,-13.0233,-13.0241,-12.9819,-12.9762,-13.0271,-13.0271,-13.0271,-13.0271,-13.0271,-13.0271,-12.8309,-12.8449,-12.8515,-12.8659,-12.8715,-12.8795,-12.8924,-12.8931,-12.9058,-12.9191,-12.9147,-12.932,-12.938,-12.9521,-12.9564,-12.9695,-12.9609,-12.9685,-12.9704,-12.9724,-12.9749,-12.92,-12.9715,-12.9714,-12.9712,-12.9711,-12.971,0,-12.7917,-12.7898,-12.8024,-12.8148,-12.8252,-12.8345,-12.8427,-12.8506,-12.8454,-12.8561,-12.8713,-12.8797,-12.8962,-12.91,-12.9212,-12.924,-12.9148,-12.9136,-12.9188,-12.9213,-12.9221,-12.922,-12.8533,-12.9121,-12.9116,-12.9112,-12.911,-12.9108,-12.7382,-12.7546,-12.7608,-12.7699,-12.7741,-12.7887,-12.7971,-12.7913,-12.8003,-12.8093,-12.8217,-12.8355,-12.8464,-12.8706,-12.8706,-12.8828,-12.8784,-12.9011,-12.8802,-12.8819,-12.8788,-12.8779,-12.8795,-12.9053,-12.906,-12.9066,-12.907,0,-12.7081,-12.7059,-12.7309,-12.7353,-12.7368,-12.7543,-12.7577,-12.7712,-12.7703,-12.7886,-12.7925,-12.791,-12.8058,-12.8022,-12.8183,-12.8159,-12.8439,-12.8393,-12.8418,-12.8407,-12.8607,-12.8589,-12.926,-12.9345,-12.8737,-12.8742,-12.8747,0,-12.6615,-12.6833,-12.6787,-12.6934,-12.7172,-12.7109,-12.7345,-12.736,-12.7413,-12.7557,-12.7447,-12.7584,-12.7516,-12.7647,-12.7612,-12.7834,-12.7864,-12.7859,-12.7847,-12.787,-12.7871,-12.7916,-12.7888,-12.7814,-12.7811,-12.7808,-12.7805,0,-12.6148,-12.6378,-12.6615,-12.6664,-12.6731,-12.6843,-12.6875,-12.6933,-12.7014,-12.7113,-12.7165,-12.7284,-12.735,-12.7442,-12.7397,-12.7257,-12.7668,-12.7465,-12.7662,-12.7664,-12.7756,-12.7751,-12.8354,-12.7801,-12.78,-12.7799,-12.7797,0,-12.5768,-12.5875,-12.6223,-12.6276,-12.6338,-12.6493,-12.6608,-12.6733,-12.6801,-12.679,-12.6867,-12.6789,-12.6981,-12.6783,-12.7045,-12.6875,-12.6944,-12.6956,-12.697,-12.6985,-12.6765,-12.711,-12.7688,-12.7747,-12.6998,-12.6992,-12.6986,0,-12.524,-12.5585,-12.5533,-12.5864,-12.6018,-12.5886,-12.6056,-12.612,-12.612,-12.6248,-12.6244,-12.639,-12.6235,-12.6275,-12.641,-12.6412,-12.6633,-12.6381,-12.6562,-12.6569,-12.6549,-12.708,-12.7176,-12.7565,-12.69,-12.6909,-12.6916,0,-12.4827,-12.4909,-12.4972,-12.5024,-12.5102,-12.523,-12.5426,-12.5557,-12.5645,-12.5729,-12.589,-12.6093,-12.5983,-12.6051,-12.6,-12.6142,-12.6481,-12.6005,-12.6006,-12.6092,-12.6854,-12.6944,-12.7009,-12.6415,-12.6425,-12.6433,-12.6848,0,-12.4259,-12.4428,-12.4597,-12.4717,-12.481,-12.5015,-12.498,-12.5082,-12.5024,-12.5019,-12.5255,-12.5297,-12.5428,-12.5492,-12.5437,-12.5774,-12.5712,-12.5593,-12.5398,-12.5746,-12.5882,-12.5937,-12.5199,-12.5193,-12.5188,-12.5184,0,0,-12.3758,-12.4001,-12.3938,-12.4128,-12.4203,-12.4063,-12.4285,-12.434,-12.4457,-12.451,-12.4401,-12.4694,-12.4733,-12.5022,-12.5128,-12.5181,-12.5237,-12.5117,-12.5581,-12.5625,-12.5666,-12.5812,-12.587,-12.5175,-12.5173,-12.5171,-12.5169,0,-12.3544,-12.3593,-12.3815,-12.387,-12.3951,-12.3935,-12.3988,-12.4042,-12.4049,-12.4281,-12.4159,-12.4296,-12.4532,-12.4589,-12.4649,-12.5081,-12.4981,-12.5124,-12.5369,-12.5531,-12.5582,-12.5627,-12.5781,-12.5837,-12.5157,-12.5158,-12.5158,0,-12.3132,-12.3174,-12.3277,-12.3443,-12.3493,-12.3655,-12.3442,-12.3621,-12.3739,-12.3573,-12.3805,-12.3824,-12.3896,-12.4175,-12.4298,-12.4202,-12.475,-12.457,-12.4601,-12.4614,-12.4769,-12.483,-12.4885,-12.4163,-12.4159,-12.4156,0,0,-12.2951,-12.3109,-12.3134,-12.3394,-12.3435,-12.3415,-12.3496,-12.3448,-12.3519,-12.3547,-12.3569,-12.364,-12.3775,-12.3866,-12.3992,-12.4303,-12.4312,-12.445,-12.4497,-12.4535,-12.4569,-12.4734,-12.4795,-12.4144,-12.4144,-12.4143,0,0,-12.2864,-12.2905,-12.2835,-12.3133,-12.3206,-12.3246,-12.3405,-12.332,-12.343,-12.3402,-12.3325,-12.3341,-12.36,-12.3623,-12.3461,-12.3921,-12.3728,-12.3766,-12.3897,-12.3956,-12.4002,-12.3992,-12.3246,0,0,0,0,0,-12.2628,-12.2899,-12.2836,-12.2881,-12.3088,-12.3282,-12.3307,-12.3252,-12.3117,-12.3244,-12.3248,-12.3136,-12.3519,-12.3374,-12.3418,-12.3599,-12.3983,-12.4012,-12.4039,-12.4281,-12.4343,-12.4395,0,0,0,0,0,0,-12.2645,-12.27,-12.2829,-12.2882,-12.2927,-12.3272,-12.303,-12.3022,-12.3102,-12.3078,-12.3139,-12.3138,-12.3092,-12.3347,-12.3388,-12.3562,-12.3232,-12.3994,-12.4019,-12.404,-12.4302,-12.4353,-12.4396,0,0,0,0,0,-12.2658,-12.2702,-12.305,-12.2877,-12.2917,-12.2909,-12.3019,-12.3011,-12.3071,-12.3079,-12.3074,-12.3023,-12.3098,-12.3128,-12.3371,-12.3545,-12.3204,-12.3219,-12.401,-12.4029,-12.4046,-12.4327,0,0,0,0,0,0,-12.2668,-12.2695,-12.3057,-12.3067,-12.2771,-12.2888,-12.2905,-12.3002,-12.3066,-12.3065,-12.2958,-12.2938,-12.3107,-12.3128,-12.3152,-12.3542,-12.3181,-12.3196,-12.3206,-12.4025,-12.404,-12.4053,0,0,0,0,0,0,-12.267,-12.2705,-12.3062,-12.2931,-12.2925,-12.287,-12.2885,-12.3082,-12.3068,-12.294,-12.2926,-12.2948,-12.3069,-12.313,-12.3147,-12.3457,-12.3163,-12.3178,-12.3188,-12.3195,-12.4037,-12.4049,0,0,0,0,0,0,-12.2684,-12.2713,-12.2928,-12.2924,-12.2918,-12.3025,-12.3042,-12.3257,-12.296,-12.294,-12.2931,-12.2918,-12.3074,-12.3091,-12.3145,-12.3448,-12.3455,-12.3163,-12.3174,-12.3181,-12.3186,0,0,0,0,0,0,0,-12.2694,-12.2514,-12.2999,-12.2918,-12.2912,-12.3159,-12.3161,-12.3164,-12.2957,-12.2945,-12.2934,-12.2923,-12.3078,-12.3094,-12.3111,-12.3441,0,0,-12.3162,-12.3169,0,0,0,0,0,0,0,0,-12.25,-12.251,-12.2999,-12.3001,-12.3003,-12.3159,-12.3161,-12.3164,-12.2955,-12.2946,-12.2936,-12.2928,-12.3082,-12.3095,-12.3109,0,0,0,0,0,0,0,0,0,0,0,0,0,0,0,-12.2999,-12.3001,0,-12.316,-12.3161,-12.3163,-12.2953,-12.2946,-12.2938,-12.2931,-12.3086,-12.3097,-12.3108,0,0,0,0,0,0,0,0,0,0,0,0,0,0,0,0,0,0,0,0,0,0,0,0,0,0,0,0,0,0,0,0,0,0,0,0,0,0,0,0,0,0,0,0,0,0,0,0,0,0,0,0,0,0,0,0,0,0,0,0,0,0,0,0,0,0,0,0,0]}]]]